Flag for Canada Weather past 2 weeks in Coral Harbour, Nunavut Territory, Canada

Now
-27 °F

Passing clouds.


Feels Like: -49 °F
Forecast: -34 / -19 °F
Wind: 9 mph from Northwest

Location: Coral Harbour

Current Time: Mar 4, 2015 at 7:30:35 PM

Latest Report: Mar 4, 2015 at 5:00 PM


Visibility: 15 mi

Pressure: 29.65 "Hg

Humidity: 61%

Dew point: -36 °F

Location of Coral HarbourLocation

Historic Weather in Coral Harbour — Graph

°F

Coral Harbour temperature yesterday

Maximum temperature yesterday: -17 °F (at 4:00 PM)
Minimum temperature yesterday: -33 °F (at 10:00 PM)
Average temperature yesterday: -25 °F

Past Weeks' High & Low Weather Summary

 TemperatureHumidityPressure
High-8 °F (Feb 28, 2:00 PM)77% (Feb 28, 4:00 PM)30.25 "Hg (Feb 28, 4:00 PM)
Low-38 °F (Feb 27, 6:00 AM)54% (Feb 22, 11:00 AM)29.25 "Hg (Mar 1, 12:00 AM)
Average-24 °F64%29.78 "Hg
* Reported Feb 17 5:00 PM — Mar 4 5:00 PM, Coral Harbour, Weather by CustomWeather, © 2015

Note: Actual official high and low records may vary slightly from our data, if they occured in-between our weather recording intervals... More about our weather records

Advertising

Coral Harbour weather history for previous 24 hours

 ConditionsComfort  
Time TempWeatherWind HumidityBarometerVisibility
5:00 PM
Wed, Mar 4
-27 °FPassing clouds.9 mph61%29.65 "Hg15 mi
4:00 PM-26 °FPassing clouds.7 mph61%29.65 "Hg15 mi
3:00 PM-24 °FPassing clouds.7 mph61%29.65 "Hg15 mi
2:00 PM-24 °FPassing clouds.6 mph61%29.66 "Hg15 mi
1:00 PM-26 °FPassing clouds.9 mph67%29.67 "Hg15 mi
12:00 PM-27 °FPassing clouds.6 mph67%29.68 "Hg15 mi
11:00 AM-27 °FPassing clouds.5 mph61%29.68 "Hg15 mi
10:00 AM-31 °FPassing clouds.5 mph60%29.70 "Hg15 mi
9:00 AM-35 °FPassing clouds.6 mph59%29.70 "Hg15 mi
8:00 AM-36 °FPassing clouds.7 mph66%29.72 "Hg15 mi
7:00 AM-36 °FClear.6 mph66%29.73 "Hg15 mi
6:00 AM-36 °FClear.5 mph66%29.73 "Hg15 mi
5:00 AM-35 °FClear.8 mph59%29.75 "Hg15 mi
4:00 AM-36 °FClear.12 mph59%29.76 "Hg15 mi
3:00 AM-35 °FClear.13 mph59%29.78 "Hg15 mi
2:00 AM-31 °FClear.16 mph67%29.79 "Hg15 mi
1:00 AM-35 °FClear.14 mph66%29.81 "Hg15 mi
12:00 AM-33 °FClear.13 mph66%29.83 "Hg15 mi
11:00 PM
Tue, Mar 3
-29 °FClear.17 mph60%29.85 "Hg15 mi
10:00 PM-33 °FClear.15 mph66%29.87 "Hg15 mi
9:00 PM-31 °FClear.15 mph60%29.88 "Hg15 mi
8:00 PM-31 °FClear.15 mph60%29.90 "Hg15 mi
7:00 PM-27 °FPassing clouds.7 mph61%29.91 "Hg15 mi
Weather by CustomWeather, © 2015

See weather overviewHow to use our weather pages